Location: Unspecified
(0.0000°N, 0.0000°E)
Time: 16:37:47
(UTC+00:00)

N. Korean satellite - Pass Details

Date: 20 September 2020
Orbit: 455 x 503 km, 97.2° (Epoch: 19 September)

Event Time Altitude Azimuth Distance (km) Brightness Sun altitude
Rises 04:34:13 0° 34° (NE) 2,537 10.7 -19.8°
Reaches altitude 10° 04:36:39 10° 50° (NE) 1,651 10.0 -19.2°
Maximum altitude 04:39:23 21° 101° (E) 1,121 9.3 -18.5°
Drops below altitude 10° 04:42:05 10° 151° (SSE) 1,636 9.6 -17.8°
Sets 04:44:28 0° 168° (SSE) 2,506 10.3 -17.2°
